Location: Archemont
(49.1579°N, 1.7598°E)
Time: 09:02:16
(UTC+00:00)

Vanguard 1 Rocket - Pass Details

Date: 25 April 2024
Orbit: 650 x 4220 km, 34.3° (Epoch: 29 May)

Event Time Altitude Azimuth Distance (km) Brightness Sun altitude
Rises 22:34:39 0° 252° (WSW) 3,926 10.7 -25.0°
Reaches altitude 10° 22:38:55 10° 226° (SW) 3,493 10.1 -25.3°
Enters shadow 22:39:30 11° 221° (SW) 3,491 10.1 -25.3°
